CZ-4C DEB, 45484

Orbit data source: Space-Track

CZ-4C DEB, 45484 is space debris in LEO originally from a launch on Tue, 10 Apr 2018 UTC launched from the Jiuquan Satellite Launch Center, China (JSC). Debris objects in space refer to the collection of defunct objects orbiting the Earth. Examples of debris include non-operational satellites, rocket bodies, and fragments generated from explosions, collisions, or faulty payload assembly.

Loading next visibility...
Identifier
45484, 2018-034M
Orbit
LEO
Country
Flag of CNCN / PRC
Related business
Manufacturer
Unknown
Mission
Spacecraft
Bus & Motor
Unknown
Mass
Unknown
Launch date (UTC)
2018-04-10 (8 years ago)
Launch vehicle
Unknown
Launch site
Jiuquan Satellite Launch Center, China (JSC)
Object type
Payload
Rocket body
Debris
Shape & HBR
Unknown shape, 0.1 m
Radar Cross Section
Small (<0.1 m²)

Expand to show TLE details & history
Last TLE update: 1 day ago

TLE from 1 day ago
0 CZ-4C DEB
1 45484U 18034M   25342.01443581 -.00000018  00000-0  10435-3 0  9999
2 45484  63.3899 251.8343 0248846   7.9937 352.4941 13.42930206341734
Epoch: 2025-12-08T00:20Z
TLE epoch observation values (Epoch: 2025-12-08T00:20:47.253Z)
Latitude
-0°
Longitude
169.61786°
Altitude
915.756 km
Speed
7.485 km/s
True Right ascension
16h 47m 20s
True Declination
0° 00' 00"
Sunlit
Object was in daylight at epoch
Visualization orbit readout
Latitude
Unknown
Longitude
Unknown
Altitude
Unknown
Speed
Unknown
Apparent Right ascension
Unknown
Apparent Declination
Unknown
Sunlit
N/A
Visualization observer readout
Local Sidereal Time
23:19:06
Azimuth
Unknown
Elevation
Unknown
Doppler factor
Unknown
Orbital elements
Apogee altitude
1,283.236 km
Perigee altitude
911.194 km
Semi-major axis
7,475.352 km
Eccentricity
0.02488
Inclination
63.3899°
RAAN
251.8343°
Arg. of periapsis
7.9937°
True anomaly
352.10977°
Mean anomaly
352.4941°
Eccentric anomaly
352.30314°
Mean motion
3.35812 °/min
Orbital period
107.2 mins
BSTAR
0.00010435
Loading maneuver chart data...
Computing Atmospheric mass density...
Loading historical data...
Loading historical data...
Loading historical data...
Loading historical data...
Loading historical data...
Loading historical data...
Loading historical data...

Documentation

Showing up to 5 results
|